This demonstration page uses our WeatherBlox Daily Observations layout. Learn more.

Left ArrowRight Arrow

36.19886, -115.1175

Hourly Observations for December 19, 2015

Temp ( °F °C ) Dew Point ( °F °C ) Humidity (%) Winds ( mph kmh ) Pressure ( in mb ) Visibility ( mi km ) Precip ( " mm )
12:53 am 00:53 Clear 38 3.3 19 -7.2 46 46 NNW 6 9 30.10 1019 10 16 0.00 0.00
1:53 am 01:53 Clear 36 2.2 19 -7.2 50 50 NW 6 9 30.10 1019 10 16 0.00 0.00
2:53 am 02:53 Clear 36 2.2 19 -7.2 50 50 NNW 3 6 30.08 1019 10 16 0.00 0.00
3:53 am 03:53 Clear 34 1.1 19 -7.2 54 54 NNW 3 6 30.07 1018 10 16 0.00 0.00
4:53 am 04:53 Clear 33 0.6 20 -6.7 58 58 NW 6 9 30.07 1018 10 16 0.00 0.00
5:53 am 05:53 Clear 33 0.6 20 -6.7 58 58 Calm 30.07 1018 10 16 0.00 0.00
6:53 am 06:53 Sunny 32 0 19 -7.2 59 59 NW 3 6 30.08 1019 10 16 0.00 0.00
7:53 am 07:53 Sunny 36 2.2 21 -6.1 55 55 Calm 30.06 1018 10 16 0.00 0.00
8:53 am 08:53 Sunny 41 5 22 -5.6 47 47 Calm 30.07 1018 10 16 0.00 0.00
9:53 am 09:53 Sunny 47 8.3 22 -5.6 37 37 Calm 30.07 1018 10 16 0.00 0.00
10:53 am 10:53 Sunny 50 10 22 -5.6 33 33 SE 9 15 30.03 1017 10 16 0.00 0.00
11:53 am 11:53 Sunny 52 11.1 23 -5 32 32 ESE 7 11 29.98 1015 10 16 0.00 0.00
12:53 pm 12:53 Sunny 54 12.2 23 -5 30 30 SE 6 9 29.94 1014 10 16 0.00 0.00
1:53 pm 13:53 Sunny 56 13.3 22 -5.6 27 27 ESE 3 6 29.92 1013 10 16 0.00 0.00
2:53 pm 14:53 Sunny 56 13.3 22 -5.6 27 27 E 5 7 29.91 1013 10 16 0.00 0.00
3:53 pm 15:53 Sunny 55 12.8 22 -5.6 28 28 Calm 29.91 1013 10 16 0.00 0.00
4:53 pm 16:53 Clear 51 10.6 21 -6.1 31 31 NNW 6 9 29.91 1013 10 16 0.00 0.00
5:53 pm 17:53 Clear 50 10 23 -5 35 35 NNW 3 6 29.91 1013 10 16 0.00 0.00
6:53 pm 18:53 Clear 49 9.4 22 -5.6 35 35 E 6 9 29.91 1013 10 16 0.00 0.00
7:53 pm 19:53 Clear 47 8.3 23 -5 39 39 Calm 29.92 1013 10 16 0.00 0.00
8:53 pm 20:53 Clear 44 6.7 24 -4.4 45 45 W 5 7 29.92 1013 10 16 0.00 0.00
9:53 pm 21:53 Partly Cloudy 47 8.3 24 -4.4 41 41 SSW 3 6 29.91 1013 10 16 0.00 0.00
10:53 pm 22:53 Cloudy 52 11.1 24 -4.4 34 34 SSW 10 17 29.91 1013 10 16 0.00 0.00
11:53 pm 23:53 Cloudy 47 8.3 24 -4.4 41 41 undefined N/A 29.91 1013 10 16 0.00 0.00

Powered by AerisWeather